Wind_Speed
6 6 7 7 7 8 8 9 9 10 11 12 12 12 13 13 13 13 14 14 15 15 15 14 14 15 15 15 15 16 16 16 16 16 17 16 16 16 16 17 17 16 15
6 6 6 7 7 7 8 8 9 10 10 11 12 13 13 13 13 13 13 14 15 15 15 15 15 15 15 16 16 16 17 16 17 17 16 16 17 17 16 17 17 17 16
7 7 7 7 7 7 8 8 9 9 10 10 11 12 13 13 13 13 13 14 14 15 15 16 16 16 16 16 16 16 16 17 17 17 17 16 17 17 17 17 17 17 17
7 8 8 8 8 8 9 9 9 10 10 10 10 11 12 12 13 13 14 14 15 15 15 16 16 16 17 17 16 16 16 17 17 17 17 17 17 17 17 18 18 17 17
8 8 8 9 9 9 10 10 10 10 10 10 10 11 11 12 12 13 13 14 14 15 15 15 15 16 16 16 16 17 17 17 17 17 17 17 17 17 17 17 17 18 18
8 8 8 9 10 10 10 10 11 11 11 11 11 11 11 12 13 13 14 14 14 15 15 15 15 15 16 16 16 16 15 16 16 17 17 17 18 18 18 18 18 18 18
9 9 9 10 10 11 11 12 12 12 12 12 13 13 12 13 13 13 13 14 14 14 14 14 14 15 15 16 17 17 17 16 16 17 17 18 18 18 18 18 18 18 18
10 10 10 11 11 11 12 12 12 13 14 14 13 13 13 13 13 13 13 14 14 14 14 14 14 15 14 14 15 16 17 17 17 17 17 17 18 17 18 18 18 17 17
11 11 11 10 11 11 12 13 13 13 13 14 14 14 14 13 14 14 14 14 14 15 15 15 15 15 15 15 14 15 16 16 17 18 18 17 17 18 18 18 17 17 17
11 11 12 12 12 11 12 13 13 13 14 14 14 14 14 14 14 14 15 15 15 15 15 15 14 15 16 17 16 16 16 17 17 17 17 17 16 16 17 17 16 17 18
11 11 12 12 12 12 12 12 13 13 14 14 14 14 14 14 15 15 15 16 16 16 15 15 16 15 15 17 17 17 17 17 17 17 16 16 16 16 16 16 16 17 17
12 12 12 13 13 12 12 12 12 13 13 13 13 13 14 14 14 14 15 15 16 16 17 17 17 17 16 16 16 17 17 17 16 16 16 16 16 16 17 16 16 16 16
13 13 13 13 13 13 13 13 13 13 13 13 13 13 13 14 14 14 15 15 15 16 17 17 17 17 17 17 16 16 16 16 17 17 17 17 16 16 17 17 17 16 16
14 14 14 13 13 14 14 14 14 14 14 14 13 13 13 14 14 15 15 15 15 16 17 17 17 17 17 17 17 17 16 16 15 16 16 16 16 16 16 16 17 17 18
15 15 15 14 15 15 15 15 15 14 14 15 14 14 14 14 14 15 15 14 15 15 15 16 16 17 17 17 17 17 17 16 16 16 16 16 16 16 16 17 17 18 18
15 16 16 15 15 15 15 15 15 15 15 15 15 15 15 15 15 15 15 15 15 15 15 16 16 17 17 17 17 17 17 17 17 17 17 16 17 17 17 17 18 18 19
16 16 16 16 16 16 16 16 16 16 16 16 16 16 15 15 15 15 15 15 15 16 16 16 16 17 17 17 17 17 17 18 18 17 18 17 17 17 17 18 18 19 19
17 16 17 17 18 17 17 17 17 17 17 16 16 16 16 16 16 16 16 16 16 16 16 16 15 15 16 17 17 18 17 18 18 18 17 18 17 17 18 17 18 18 19
18 18 19 18 18 18 18 18 17 17 18 17 17 17 17 17 17 17 17 17 17 17 17 16 16 16 16 17 18 18 18 18 18 18 18 17 17 18 18 18 18 18 18
19 19 19 20 20 19 19 18 18 18 18 18 18 18 18 18 18 18 18 18 18 18 18 17 17 17 17 17 18 19 19 19 19 19 19 19 18 18 18 19 19 19 20
20 20 20 20 20 20 19 19 19 19 19 20 19 19 19 19 19 19 19 18 18 18 18 18 18 18 18 18 18 19 19 20 20 21 21 21 20 20 20 19 19 19 20
20 21 21 21 21 20 20 21 21 21 21 21 21 21 21 21 20 20 20 20 20 20 20 20 19 19 19 20 20 20 20 20 20 21 22 22 23 22 21 21 21 21 21
21 21 22 22 22 22 22 22 22 22 22 22 22 22 22 22 22 22 22 23 22 22 21 21 21 21 21 22 21 21 21 21 21 21 22 23 24 24 24 23 23 22 22
23 23 23 23 23 23 23 23 24 24 24 23 23 23 23 23 24 24 24 24 24 24 23 23 23 23 22 22 23 23 22 22 23 23 23 23 24 24 25 25 24 24 24
24 24 24 24 23 24 24 24 24 24 24 24 24 24 24 24 24 25 26 26 25 25 24 24 25 25 25 24 24 24 24 23 24 23 23 24 24 25 25 25 25 25 25
24 24 24 24 24 25 25 25 25 25 24 24 24 25 25 25 25 25 25 25 24 24 24 24 24 24 25 25 25 25 25 25 25 24 24 25 25 26 25 26 26 26 26
Wind_Direction
267 266 269 273 278 281 282 280 277 278 276 272 269 267 266 263 259 260 259 254 252 253 256 258 258 257 258 259 259 258 260 262 261 261 263 262 262 263 263 262 262 262 261
270 270 272 277 283 289 289 284 281 281 280 276 272 269 267 264 258 257 256 255 255 256 255 256 257 257 257 257 258 257 259 259 260 261 262 261 261 263 263 261 260 261 261
277 279 281 284 288 289 290 289 287 287 284 282 279 276 271 266 260 257 255 254 255 256 256 256 257 258 258 258 260 259 258 261 260 260 261 261 263 265 263 261 260 260 261
280 280 282 286 289 289 290 289 288 287 287 285 282 278 275 270 265 261 259 258 256 256 257 258 259 260 260 260 263 264 264 265 263 261 260 261 264 265 263 262 260 259 260
278 278 280 283 287 289 290 291 291 291 289 286 283 279 275 271 266 264 263 261 259 257 259 260 260 260 261 260 262 265 267 266 266 267 265 265 265 264 263 263 259 259 258
284 279 281 284 285 287 288 288 288 287 286 285 284 280 276 270 267 264 262 261 259 260 261 261 262 262 262 262 264 266 263 262 264 268 268 267 265 264 263 262 259 259 258
283 278 282 286 288 288 288 287 285 284 284 284 283 281 279 276 273 268 265 263 261 259 260 261 261 261 262 262 265 268 268 268 267 267 268 267 266 264 261 259 257 256 256
285 279 284 287 288 288 288 288 287 286 283 283 283 283 281 278 276 272 269 265 264 262 262 261 263 264 263 262 267 269 268 268 271 269 270 267 265 263 261 261 259 255 256
283 285 292 288 289 289 288 288 287 287 286 285 282 280 280 279 277 273 271 269 268 266 264 261 261 262 261 263 267 271 271 271 272 272 271 268 266 263 261 260 257 256 257
283 289 292 290 294 289 288 287 286 286 286 285 283 280 279 278 276 274 271 269 268 266 265 263 263 264 263 263 268 271 274 273 273 271 271 268 265 262 262 258 255 256 257
285 290 293 294 294 292 292 289 285 285 285 283 282 281 279 277 275 273 270 269 268 265 265 265 264 265 266 266 269 271 273 275 275 274 273 270 265 263 262 258 257 257 255
286 290 293 295 294 294 292 291 288 288 286 284 282 280 280 278 276 273 270 269 268 266 266 265 264 265 266 268 271 272 274 274 274 272 271 270 266 264 260 260 257 257 257
286 289 291 294 294 295 294 291 289 289 288 285 283 282 283 282 278 275 273 271 270 267 267 265 264 263 264 267 269 271 273 274 274 272 270 268 265 262 260 258 258 259 259
285 287 289 290 291 291 292 292 291 289 289 287 286 284 285 285 281 277 275 272 270 269 268 266 263 263 264 266 267 269 270 270 272 272 272 268 264 262 260 260 261 261 260
285 285 285 286 288 289 290 291 291 289 287 285 285 285 284 285 283 280 277 275 273 272 272 269 266 264 264 265 267 269 269 268 268 267 267 266 265 264 263 265 265 265 264
285 284 284 285 286 287 287 290 288 287 285 284 283 282 282 282 281 280 279 277 276 275 274 273 268 265 265 265 266 267 267 266 269 268 269 268 268 267 266 266 267 266 267
283 284 284 284 285 286 287 287 287 286 284 282 281 282 282 281 280 280 280 280 278 278 275 275 272 269 268 268 267 267 268 267 270 272 270 268 269 269 269 268 267 267 268
281 282 283 282 283 284 285 285 286 286 285 283 282 282 282 282 279 280 282 282 280 279 278 276 275 271 268 267 267 267 269 268 269 271 269 267 268 268 268 269 270 270 269
278 279 281 281 282 283 284 284 286 285 284 283 283 281 281 282 280 280 281 281 280 280 279 276 273 273 270 267 267 267 267 269 270 270 269 269 269 269 269 270 271 271 272
278 279 280 280 281 281 281 282 284 284 283 283 281 278 278 279 278 279 281 281 280 279 277 275 271 271 269 268 268 268 267 268 268 269 271 272 271 270 270 271 271 272 273
278 279 278 280 280 280 280 280 282 283 282 281 281 280 277 277 277 278 280 281 280 278 276 275 271 269 268 269 271 271 271 269 268 269 270 271 271 270 270 270 271 273 274
278 279 278 280 280 280 280 280 281 281 281 282 281 281 279 277 277 278 278 279 280 279 276 274 273 270 269 269 271 271 271 271 270 269 270 271 271 270 270 270 272 274 274
276 277 277 279 281 280 280 280 280 280 280 279 279 279 278 275 276 277 277 279 280 279 276 275 273 272 270 269 270 271 271 272 271 271 271 272 272 272 272 272 273 274 275
275 275 276 278 278 278 278 279 281 281 281 279 278 277 276 274 274 276 276 277 278 277 275 275 274 272 271 268 268 269 271 273 273 273 273 271 272 273 273 273 274 275 275
275 274 276 278 278 278 279 279 281 282 282 280 278 277 277 275 274 275 275 276 276 274 273 271 272 272 271 270 269 270 272 273 274 273 273 272 273 274 275 275 276 276 276
277 277 277 278 278 278 278 280 281 282 284 282 281 280 280 278 276 276 274 274 273 272 271 271 271 270 271 272 270 270 272 273 274 273 273 274 274 274 275 277 277 277 277
Height
5838 5838 5838 5838 5838 5838 5838 5838 5838 5838 5838 5838 5837 5837 5837 5838 5838 5838 5839 5839 5840 5840 5841 5841 5842 5843 5843 5844 5844 5844 5845 5846 5846 5846 5847 5847 5848 5848 5849 5849 5849 5850 5850
5837 5837 5837 5837 5837 5836 5836 5836 5836 5836 5835 5835 5835 5835 5835 5835 5835 5835 5835 5836 5837 5837 5838 5838 5839 5840 5840 5841 5841 5841 5841 5842 5842 5843 5843 5844 5844 5845 5845 5845 5846 5846 5847
5836 5836 5836 5835 5835 5835 5834 5834 5834 5833 5833 5832 5832 5832 5832 5832 5832 5832 5832 5833 5833 5834 5835 5835 5836 5836 5837 5837 5837 5837 5838 5838 5838 5838 5839 5840 5840 5841 5841 5842 5842 5843 5843
5834 5834 5834 5834 5833 5833 5833 5832 5832 5831 5831 5830 5829 5829 5829 5829 5829 5829 5829 5830 5830 5831 5831 5832 5832 5833 5833 5834 5834 5834 5834 5834 5835 5836 5836 5836 5837 5837 5837 5838 5838 5839 5840
5833 5832 5832 5832 5831 5831 5831 5830 5830 5829 5828 5828 5827 5826 5826 5826 5826 5826 5826 5827 5827 5827 5828 5828 5829 5829 5830 5830 5831 5830 5830 5831 5831 5832 5832 5833 5833 5833 5833 5834 5834 5835 5836
5831 5830 5830 5830 5829 5829 5828 5828 5827 5827 5826 5825 5825 5824 5823 5823 5823 5823 5823 5823 5824 5824 5824 5825 5825 5826 5826 5826 5827 5827 5827 5827 5828 5828 5828 5829 5829 5829 5829 5830 5830 5831 5832
5829 5828 5828 5827 5827 5826 5826 5825 5825 5824 5823 5822 5822 5821 5821 5820 5820 5820 5820 5820 5820 5821 5821 5821 5821 5822 5822 5822 5823 5823 5823 5824 5824 5824 5824 5824 5824 5824 5825 5825 5826 5827 5828
5826 5826 5825 5825 5824 5824 5823 5822 5821 5821 5820 5819 5819 5818 5818 5818 5817 5817 5817 5817 5817 5817 5818 5818 5818 5818 5818 5818 5818 5819 5819 5819 5819 5819 5819 5819 5819 5820 5820 5820 5821 5822 5824
5823 5823 5822 5822 5821 5820 5819 5819 5818 5817 5816 5816 5815 5815 5815 5814 5814 5814 5813 5813 5813 5814 5814 5814 5814 5814 5815 5815 5815 5815 5815 5815 5815 5815 5815 5815 5815 5815 5815 5816 5817 5818 5819
5820 5820 5819 5818 5818 5817 5816 5815 5814 5814 5813 5812 5812 5811 5811 5811 5810 5810 5810 5810 5810 5810 5810 5810 5811 5811 5811 5811 5811 5811 5811 5811 5811 5810 5810 5810 5810 5810 5811 5811 5812 5813 5814
5817 5816 5816 5815 5814 5813 5812 5811 5811 5810 5809 5809 5808 5808 5807 5807 5806 5806 5806 5806 5806 5806 5806 5806 5807 5807 5807 5807 5807 5807 5807 5807 5807 5806 5806 5805 5805 5806 5806 5807 5808 5809 5810
5813 5813 5812 5811 5810 5809 5808 5808 5807 5806 5806 5805 5804 5804 5803 5803 5803 5802 5802 5802 5802 5802 5802 5802 5802 5803 5803 5803 5803 5803 5803 5803 5803 5802 5802 5802 5802 5802 5802 5803 5804 5805 5806
5810 5809 5808 5807 5806 5806 5805 5804 5803 5802 5802 5801 5801 5800 5799 5799 5798 5798 5798 5797 5797 5797 5797 5797 5798 5798 5798 5799 5799 5799 5799 5799 5798 5798 5798 5798 5798 5798 5798 5799 5800 5800 5801
5806 5805 5804 5803 5802 5802 5801 5800 5799 5798 5798 5797 5797 5796 5795 5795 5794 5794 5794 5793 5793 5793 5792 5793 5793 5793 5794 5794 5794 5794 5794 5794 5794 5794 5794 5794 5794 5794 5794 5795 5795 5796 5797
5802 5801 5800 5799 5798 5797 5797 5796 5795 5794 5794 5793 5792 5792 5791 5791 5790 5790 5789 5789 5789 5788 5788 5788 5788 5788 5789 5789 5789 5790 5790 5790 5790 5790 5789 5789 5790 5790 5790 5791 5791 5792 5792
5797 5796 5796 5795 5794 5793 5792 5791 5791 5790 5789 5789 5788 5788 5787 5786 5786 5785 5785 5784 5784 5784 5783 5783 5783 5783 5783 5784 5784 5785 5785 5785 5785 5785 5785 5785 5785 5785 5786 5786 5787 5787 5787
5792 5791 5791 5790 5789 5789 5788 5787 5786 5785 5785 5784 5784 5783 5782 5782 5781 5781 5780 5780 5779 5779 5779 5778 5778 5778 5778 5779 5779 5780 5780 5781 5780 5780 5780 5780 5780 5780 5781 5781 5782 5782 5782
5787 5787 5786 5785 5784 5784 5783 5782 5781 5780 5779 5779 5778 5778 5778 5777 5777 5776 5776 5775 5775 5774 5774 5773 5773 5772 5773 5774 5774 5775 5775 5775 5776 5776 5775 5776 5776 5776 5776 5776 5776 5777 5777
5781 5781 5780 5780 5779 5778 5778 5777 5776 5775 5774 5773 5773 5773 5773 5772 5772 5771 5771 5770 5770 5769 5768 5768 5768 5768 5768 5768 5769 5769 5770 5770 5770 5770 5770 5770 5771 5771 5771 5771 5771 5771 5771
5776 5775 5775 5774 5773 5772 5772 5771 5770 5770 5769 5768 5768 5767 5767 5767 5766 5766 5765 5765 5764 5764 5763 5763 5763 5763 5763 5763 5764 5764 5765 5765 5765 5765 5765 5765 5765 5765 5765 5766 5766 5766 5766
5770 5769 5769 5768 5767 5766 5766 5765 5765 5764 5763 5763 5762 5761 5761 5761 5760 5760 5760 5759 5759 5758 5758 5758 5758 5758 5758 5758 5758 5759 5759 5759 5759 5759 5759 5759 5759 5759 5759 5760 5760 5760 5760
5763 5763 5763 5762 5761 5760 5760 5759 5758 5758 5757 5757 5756 5755 5755 5754 5754 5753 5753 5753 5752 5752 5752 5752 5752 5752 5752 5752 5753 5753 5753 5753 5753 5754 5753 5753 5753 5753 5753 5753 5753 5753 5754
5757 5757 5756 5755 5755 5754 5753 5752 5751 5751 5750 5750 5749 5748 5748 5748 5747 5747 5747 5746 5746 5745 5745 5746 5746 5746 5746 5746 5746 5747 5747 5747 5747 5747 5747 5747 5747 5747 5747 5747 5747 5747 5747
5750 5749 5749 5748 5747 5747 5746 5745 5744 5743 5743 5742 5742 5741 5741 5740 5740 5740 5740 5739 5739 5738 5738 5738 5739 5739 5739 5739 5739 5740 5740 5740 5740 5740 5740 5740 5740 5740 5740 5740 5740 5740 5740
5742 5741 5741 5740 5740 5739 5738 5738 5737 5736 5735 5735 5734 5733 5733 5733 5733 5732 5732 5732 5732 5731 5731 5731 5731 5731 5731 5732 5732 5732 5733 5733 5733 5733 5733 5733 5733 5733 5733 5732 5732 5732 5732
5734 5734 5733 5733 5732 5731 5731 5730 5729 5728 5728 5727 5727 5726 5725 5725 5725 5724 5724 5724 5724 5724 5724 5724 5724 5724 5724 5724 5724 5725 5725 5725 5725 5726 5725 5725 5725 5725 5725 5725 5724 5724 5724